Station OLCN6 - Olcott Harbor, NY Image indicating link to RSS feed of recent meteorological observations for station OLCN6


Conditions at OLCN6 as of
(8:00 pm EDT on 07/18/2024)
0000 GMT on 07/19/2024:
     

Click on the graph icon in the table below to see a time series plot of the last five days of that observation.

5-day plot - Wind Direction Wind Direction (WDIR):NNW ( 340 deg true )
5-day plot - Wind Speed Wind Speed (WSPD): 12.0 kts
5-day plot - Wind Gust Wind Gust (GST): 14.0 kts
5-day plot - Atmospheric Pressure Atmospheric Pressure (PRES):30.08 in
5-day plot - Pressure Tendency Pressure Tendency (PTDY):+0.02 in ( Rising )
5-day plot - Air Temperature Air Temperature (ATMP): 70.2 °F
5-day plot - Wind Speed at 10 Meters Wind Speed at 10 meters (WSPD10M): 11.7 kts
5-day plot - Wind Speed at 20 Meters Wind Speed at 20 meters (WSPD20M): 11.7 kts
5-day plot -  Wind Speed, Wind Gust and Atmospheric Pressure Combined plot of Wind Speed, Gust, and Air Pressure
Previous observations
TIME
(EDT)
5-day plot - Wind Direction
WDIR
 
5-day plot - Wind Speed
WSPD
kts
5-day plot - Wind Gust
GST
kts
5-day plot - Wave Height
WVHT
ft
5-day plot - Dominant Wave Period
DPD
sec
5-day plot - Average Wave Period
APD
sec
5-day plot - Mean Wave Direction
MWD
 
5-day plot - Atmospheric Pressure
PRES
in
5-day plot - Pressure Tendency
PTDY
in
5-day plot - Air Temperature
ATMP
°F
5-day plot - Water Temperature
WTMP
°F
5-day plot - Dew Point
DEWP
°F
5-day plot - Salinity
SAL
psu
5-day plot - Visibility
VIS
nmi
5-day plot - Tide (above MLLW)
TIDE
ft
2024-07-18 07:50 pmNNW 12.0 14.0----30.08- 70.3-----
2024-07-18 07:40 pmNNW 11.1 15.0----30.08- 70.3-----
2024-07-18 07:30 pmNNW 9.9 13.0----30.07- 70.3-----
2024-07-18 07:20 pm NW 8.9 13.0----30.07- 70.3-----
2024-07-18 07:10 pm NW 8.0 12.0----30.07- 70.2-----
2024-07-18 07:00 pmNNW 8.0 11.1----30.07+0.01 70.3-----
2024-07-18 06:50 pm NW 8.9 11.1----30.07- 70.3-----
2024-07-18 06:40 pm NW 8.9 12.0----30.07- 70.2-----
2024-07-18 06:30 pmNNW 11.1 13.0----30.06- 70.2-----
2024-07-18 06:20 pmNNW 11.1 13.0----30.06- 70.2-----
2024-07-18 06:10 pm NW 9.9 13.0----30.06- 70.2-----
2024-07-18 06:00 pmNNW 12.0 15.0----30.06+0.00 70.0-----
2024-07-18 05:50 pmNNW 11.1 14.0----30.06- 70.0-----
2024-07-18 05:40 pm NW 11.1 14.0----30.06- 70.0-----
2024-07-18 05:20 pm NW 11.1 14.0----30.06- 69.8-----
2024-07-18 05:10 pm NW 11.1 15.0----30.06- 69.8-----
2024-07-18 05:00 pmNNW 13.0 15.0----30.06+0.00 69.6-----
2024-07-18 04:50 pm NW 12.0 14.0----30.06- 69.6-----
2024-07-18 04:40 pm NW 11.1 14.0----30.06- 69.6-----
2024-07-18 04:30 pmNNW 12.0 15.0----30.06- 69.6-----
2024-07-18 04:20 pm NW 11.1 13.0----30.06- 69.4-----
2024-07-18 04:10 pm NW 11.1 13.0----30.06- 69.3-----
2024-07-18 04:00 pm NW 11.1 12.0----30.06-0.01 69.3-----
2024-07-18 03:50 pm NW 8.0 11.1----30.06- 68.9-----
2024-07-18 03:40 pmWNW 9.9 12.0----30.06- 68.9-----
2024-07-18 03:30 pmWNW 8.0 12.0----30.06- 68.5-----
2024-07-18 03:20 pmWNW 11.1 13.0----30.06- 68.5-----
2024-07-18 03:10 pmWNW 8.9 11.1----30.07- 68.4-----
2024-07-18 03:00 pmWNW 7.0 13.0----30.06+0.00 68.2-----
2024-07-18 02:50 pmWNW 8.0 12.0----30.07- 68.0-----
2024-07-18 02:40 pm W 8.9 11.1----30.06- 68.0-----
2024-07-18 02:30 pmWNW 9.9 13.0----30.06- 68.2-----
2024-07-18 02:20 pmWNW 9.9 12.0----30.06- 68.0-----
2024-07-18 02:10 pmWNW 8.0 9.9----30.06- 68.0-----
2024-07-18 02:00 pmWNW 8.9 9.9----30.06- 68.0-----
2024-07-18 01:50 pm NW 5.1 8.9----30.06- 68.0-----
2024-07-18 01:40 pmWNW 7.0 8.9----30.06- 67.8-----
2024-07-18 01:30 pm NW 5.1 8.9----30.07- 67.6-----
2024-07-18 01:20 pm NW 6.0 8.0----30.06- 67.8-----
2024-07-18 01:10 pmNNW 6.0 8.0----30.07- 67.8-----
2024-07-18 01:00 pm N 7.0 8.0----30.07+0.04 67.6-----
2024-07-18 12:50 pmNNW 7.0 9.9----30.06- 67.5-----
2024-07-18 12:40 pmNNW 8.9 9.9----30.06- 67.6-----
2024-07-18 12:30 pmNNW 8.0 11.1----30.06- 67.6-----
2024-07-18 12:20 pmNNW 7.0 8.9----30.06- 67.3-----
2024-07-18 12:00 pmNNW 7.0 11.1----30.06+0.04 67.1-----
2024-07-18 11:50 amNNW 7.0 11.1----30.06- 67.3-----
2024-07-18 11:40 am NW 6.0 9.9----30.06- 67.1-----
2024-07-18 11:30 am NW 7.0 9.9----30.06- 66.9-----
2024-07-18 11:20 am NW 8.0 11.1----30.06- 66.7-----
2024-07-18 11:10 amNNW 5.1 8.9----30.06- 66.7-----
2024-07-18 10:00 amNNW 9.9 14.0----30.03+0.04 65.8-----
2024-07-18 09:50 amNNW 12.0 13.0----30.03- 66.0-----
2024-07-18 09:40 amNNW 9.9 14.0----30.03- 66.0-----
2024-07-18 09:30 amNNW 9.9 12.0----30.03- 66.0-----
2024-07-18 09:20 amNNW 9.9 12.0----30.03- 65.8-----
2024-07-18 09:10 amNNW 11.1 13.0----30.02- 65.8-----
2024-07-18 09:00 amNNW 9.9 13.0----30.02+0.05 65.8-----
2024-07-18 08:50 amNNW 8.9 13.0----30.02- 65.8-----
2024-07-18 08:40 amNNW 12.0 14.0----30.01- 65.8-----
2024-07-18 08:30 amNNW 13.0 15.9----30.01- 65.8-----
2024-07-18 08:20 amNNW 13.0 15.0----30.01- 65.8-----
2024-07-18 08:10 amNNW 13.0 17.1----30.01- 65.8-----
2024-07-18 08:00 amNNW 15.0 17.1----30.00+0.05 66.4-----
2024-07-18 07:50 amNNW 13.0 15.9----30.00- 66.6-----
2024-07-18 07:40 am NW 13.0 15.0----30.00- 66.7-----
2024-07-18 07:30 am NW 11.1 14.0----30.00- 66.7-----
2024-07-18 07:20 am NW 11.1 15.0----29.99- 66.7-----
2024-07-18 07:10 am NW 11.1 15.0----29.99- 66.7-----
2024-07-18 07:00 am NW 13.0 14.0----29.99+0.05 66.9-----
2024-07-18 06:40 am NW 13.0 15.9----29.98- 67.3-----
2024-07-18 06:30 amWNW 12.0 15.0----29.98- 66.9-----
2024-07-18 06:20 amWNW 12.0 15.0----29.97- 66.9-----
2024-07-18 06:10 amWNW 12.0 15.9----29.97- 66.7-----
2024-07-18 06:00 amWNW 12.0 15.9----29.97+0.04 66.9-----
2024-07-18 05:50 am NW 14.0 18.1----29.96- 66.9-----
2024-07-18 05:40 am NW 13.0 15.9----29.97- 67.3-----
2024-07-18 05:30 am NW 14.0 17.1----29.96- 67.3-----
2024-07-18 05:20 amWNW 15.0 15.9----29.96- 67.3-----
2024-07-18 05:10 amWNW 13.0 15.0----29.95- 67.5-----
2024-07-18 05:00 am NW 12.0 15.9----29.95+0.03 67.8-----
2024-07-18 04:50 am NW 13.0 17.1----29.95- 67.8-----
2024-07-18 04:40 am NW 12.0 15.9----29.95- 68.0-----
2024-07-18 04:30 am NW 14.0 17.1----29.95- 68.2-----
2024-07-18 04:20 am NW 14.0 15.9----29.94- 68.4-----
2024-07-18 04:10 am NW 14.0 18.1----29.94- 68.4-----
2024-07-18 04:00 amWNW 15.0 17.1----29.94+0.02 68.2-----
2024-07-18 03:50 amWNW 14.0 15.9----29.94- 68.5-----
2024-07-18 03:40 am NW 13.0 15.0----29.94- 68.9-----
2024-07-18 03:30 am NW 12.0 15.9----29.94- 68.9-----
2024-07-18 03:20 am NW 14.0 18.1----29.93- 69.1-----
2024-07-18 03:10 am NW 15.9 17.1----29.93- 69.3-----
2024-07-18 03:00 amNNW 13.0 15.9----29.93+0.02 69.3-----
2024-07-18 02:50 am NW 14.0 17.1----29.93- 69.4-----
2024-07-18 02:40 amNNW 13.0 15.0----29.93- 69.6-----
2024-07-18 02:30 am NW 13.0 15.0----29.93- 69.6-----
2024-07-18 02:20 am NW 12.0 15.0----29.93- 69.8-----
2024-07-18 02:10 am NW 11.1 13.0----29.92- 70.0-----
2024-07-18 02:00 am NW 12.0 17.1----29.92+0.03 70.0-----
2024-07-18 01:50 amNNW 12.0 15.9----29.92- 70.2-----
2024-07-18 01:40 amNNW 13.0 17.1----29.92- 70.3-----
2024-07-18 01:20 amNNW 15.0 18.1----29.92- 70.9-----
2024-07-18 01:10 amNNW 12.0 15.0----29.92- 71.1-----
2024-07-18 01:00 am N 11.1 14.0----29.92+0.04 71.1-----
2024-07-18 12:50 amNNW 13.0 15.0----29.92- 71.2-----
2024-07-18 12:40 am N 11.1 15.0----29.92- 71.4-----
2024-07-18 12:30 am N 12.0 15.0----29.91- 71.4-----
2024-07-18 12:20 amNNW 13.0 15.0----29.91- 71.8-----
2024-07-18 12:10 am N 12.0 14.0----29.91- 72.0-----
2024-07-18 12:00 am N 14.0 17.1----29.91+0.05 72.1-----
2024-07-17 11:50 pm N 13.0 15.0----29.90- 72.9-----
2024-07-17 11:40 pm N 13.0 14.0----29.90- 73.2-----
2024-07-17 11:30 pm N 8.9 11.1----29.90- 72.3-----
2024-07-17 11:20 pm S 1.9 2.9----29.90- 70.3-----
2024-07-17 11:10 pm S 2.9 4.1----29.90- 70.3-----
2024-07-17 11:00 pm S 1.9 2.9----29.89+0.04 71.6-----
2024-07-17 10:50 pm S 2.9 2.9----29.89- 71.6-----
2024-07-17 10:40 pm W 1.9 2.9----29.89- 71.8-----
2024-07-17 10:30 pm- 0.0 4.1----29.89- 71.2-----
2024-07-17 10:20 pm S 2.9 4.1----29.89- 71.6-----
2024-07-17 10:10 pmSSW 1.9 5.1----29.89- 72.0-----
2024-07-17 10:00 pmSSW 5.1 7.0----29.88- 72.0-----
2024-07-17 09:50 pm S 7.0 8.9----29.88- 72.0-----
2024-07-17 09:40 pm SW 2.9 5.1----29.88- 73.6-----
2024-07-17 09:30 pmWSW 4.1 4.1----29.87- 73.8-----
2024-07-17 09:20 pm W 2.9 7.0----29.87- 74.8-----
2024-07-17 09:10 pmWNW 4.1 6.0----29.86- 75.4-----
2024-07-17 09:00 pm W 5.1 6.0----29.86+0.03 75.6-----
2024-07-17 08:50 pm W 1.9 5.1----29.86- 75.6-----
2024-07-17 08:40 pmWNW 2.9 2.9----29.86- 75.7-----
2024-07-17 08:30 pm W 1.9 2.9----29.86- 75.4-----
2024-07-17 08:20 pm SW 1.9 1.9----29.86- 75.4-----
2024-07-17 08:00 pm W 1.9 1.9----29.85+0.02 75.4-----
2024-07-17 07:50 pm- 0.0 1.9----29.85- 75.7-----